Vancouver, British Columbia

12:29 PM PST on December 02, 2016 (GMT -0800)
Vancouver

Weather History for 71892 - November, 2012

Change the Weather History Date:

Monday, November 5, 2012

  Actual Average Record
Temperature  
Mean Temperature 50 °F -  
Max Temperature 55 °F - - ()
Min Temperature 44 °F - - ()
Degree Days  
Heating Degree Days 16    
Moisture  
Dew Point 46 °F    
Average Humidity 84    
Maximum Humidity 93    
Minimum Humidity 76    
Precipitation  
Precipitation 0.00 in - - ()
Sea Level Pressure  
Sea Level Pressure 30.33 in    
Wind  
Wind Speed 5 mph ()    
Max Wind Speed 13 mph    
Max Gust Speed -    
Visibility 15.0 miles    
Events      
T = Trace of Precipitation, MM = Missing Value Source: Averaged Metar Reports

Daily Weather History Graph

Daily Weather History Graph

Search for Another Location

Airport or City:

Trip Planner

Search our weather history database for the weather conditions in past years. The results will help you decide how hot, cold, wet, or windy it might be!

Date:

Astronomy

Nov. 05, 2012 Rise Set
Actual Time 7:07 AM PST 4:44 PM PST
Civil Twilight 6:33 AM PST 5:17 PM PST
Nautical Twilight 5:56 AM PST 5:55 PM PST
Astronomical Twilight 5:19 AM PST 6:32 PM PST
Moon 10:28 PM PST (11/5) 12:31 PM PST (11/5)
Length of Visible Light 10h 43m
Length of Day
9h 36m
Waning Gibbous, 62% of the Moon is Illuminated
Nov 5
Waning Gibbous
Nov 6
Last Quarter
Nov 13
New
Nov 20
First Quarter
Nov 28
Full

Hourly Weather History & Observations

Time (PST) Temp. Windchill Dew Point Humidity Pressure Visibility Wind Dir Wind Speed Gust Speed Precip Events Conditions
12:00 AM 53.6 °F - 46.4 °F 77% 30.26 in 15.0 mi WSW 12.7 mph - N/A   Overcast
1:00 AM 51.8 °F - 46.4 °F 82% 30.29 in 15.0 mi West 6.9 mph - N/A   Overcast
2:00 AM 51.8 °F - 46.4 °F 82% 30.30 in 15.0 mi WSW 8.1 mph - N/A   Overcast
3:00 AM 51.8 °F - 44.6 °F 76% 30.32 in 15.0 mi WSW 9.2 mph - N/A   Overcast
4:00 AM 50 °F - 46 °F 80% 30.33 in 15 mi West 6.9 mph - -   Overcast
4:00 AM 50.0 °F - 46.4 °F 87% 30.33 in 15.0 mi West 6.9 mph - N/A   Overcast
5:00 AM 48.2 °F - 44.6 °F 87% 30.35 in 15.0 mi Calm Calm - N/A   Overcast
6:00 AM 46.4 °F 45.2 °F 44.6 °F 93% 30.36 in 15.0 mi ESE 3.5 mph - N/A   Mostly Cloudy
7:00 AM 46.4 °F 45.2 °F 42.8 °F 87% 30.37 in 15.0 mi East 3.5 mph - N/A   Scattered Clouds
8:00 AM 46.4 °F - 44.6 °F 93% 30.38 in 15.0 mi Calm Calm - N/A   Mostly Cloudy
9:00 AM 50.0 °F - 46.4 °F 87% 30.39 in 15.0 mi ESE 5.8 mph - N/A   Mostly Cloudy
10:00 AM 52 °F - 47 °F 76% 30.39 in 15 mi SSE 3.5 mph - -   Scattered Clouds
10:00 AM 51.8 °F - 46.4 °F 82% 30.39 in 15.0 mi SSE 3.5 mph - N/A   Mostly Cloudy
11:00 AM 51.8 °F - 44.6 °F 76% 30.39 in 15.0 mi SW 4.6 mph - N/A   Mostly Cloudy
12:00 PM 53.6 °F - 46.4 °F 77% 30.39 in 15.0 mi SW 3.5 mph - N/A   Mostly Cloudy
1:00 PM 51.8 °F - 48.2 °F 88% 30.38 in 15.0 mi West 4.6 mph - N/A   Mostly Cloudy
2:00 PM 53.6 °F - 46.4 °F 77% 30.37 in 15.0 mi West 5.8 mph - N/A   Mostly Cloudy
3:00 PM 51.8 °F - 46.4 °F 82% 30.37 in 15.0 mi WNW 4.6 mph - N/A   Mostly Cloudy
4:00 PM 50 °F - 47 °F 85% 30.36 in 15 mi WNW 3.5 mph - -   Scattered Clouds
4:00 PM 50.0 °F - 46.4 °F 87% 30.36 in 15.0 mi WNW 3.5 mph - N/A   Mostly Cloudy
5:00 PM 50.0 °F - 46.4 °F 87% 30.35 in 15.0 mi NW 4.6 mph - N/A   Mostly Cloudy
6:00 PM 50.0 °F - 46.4 °F 87% 30.32 in 15.0 mi WNW 3.5 mph - N/A   Mostly Cloudy
7:00 PM 50.0 °F - 46.4 °F 87% 30.30 in 15.0 mi North 3.5 mph - N/A   Mostly Cloudy
8:00 PM 50.0 °F - 46.4 °F 87% 30.27 in 15.0 mi Calm Calm - N/A   Overcast
9:00 PM 48.2 °F - 44.6 °F 87% 30.24 in 15.0 mi North 3.5 mph - N/A   Overcast
10:00 PM 47 °F - 44 °F 87% 30.23 in 15 mi NW 3.5 mph - -   Overcast
10:00 PM 48.2 °F - 44.6 °F 87% 30.23 in 15.0 mi NW 3.5 mph - N/A   Overcast
11:00 PM 46.4 °F 45.2 °F 44.6 °F 93% 30.21 in 15.0 mi North 3.5 mph - N/A   Overcast